�������l�o���
Date,Time,MP-1(��Sv/h),MP-2(��Sv/h),MP-3(��Sv/h),MP-4(��Sv/h),MP-5(��Sv/h),MP-6(��Sv/h),MP-7(��Sv/h),MP-8(��Sv/h),����,����(m/s),���J
2019/08/23,00:00,0.748,1.045,0.728,1.300,0.949,0.428,0.739,0.696,��쐼,2.9,��
2019/08/23,00:10,0.749,1.046,0.730,1.300,0.949,0.427,0.740,0.698,��쐼,2.0,�L
2019/08/23,00:20,0.748,1.043,0.728,1.300,0.949,0.427,0.741,0.697,��쐼,2.2,��
2019/08/23,00:30,0.748,1.045,0.728,1.301,0.946,0.427,0.740,0.697,��쐼,2.3,�L
2019/08/23,00:40,0.747,1.044,0.729,1.300,0.950,0.427,0.740,0.698,��쓌,2.3,�L
2019/08/23,00:50,0.749,1.047,0.728,1.301,0.948,0.426,0.739,0.698,��쓌,2.0,�L
2019/08/23,01:00,0.747,1.045,0.728,1.297,0.948,0.425,0.739,0.697,��,2.8,�L
2019/08/23,01:10,0.751,1.046,0.730,1.299,0.949,0.426,0.739,0.699,��,2.6,��
2019/08/23,01:20,0.747,1.045,0.728,1.299,0.949,0.427,0.740,0.698,��,2.3,��
2019/08/23,01:30,0.748,1.045,0.728,1.300,0.949,0.427,0.739,0.697,��,1.5,�L
2019/08/23,01:40,0.749,1.044,0.728,1.300,0.950,0.428,0.740,0.697,��쓌,1.5,�L
2019/08/23,01:50,0.749,1.045,0.729,1.300,0.948,0.426,0.740,0.698,�쓌,0.9,�L
2019/08/23,02:00,0.749,1.047,0.729,1.300,0.949,0.429,0.740,0.698,��쓌,1.2,�L
2019/08/23,02:10,0.751,1.047,0.727,1.301,0.951,0.427,0.739,0.698,��쐼,2.6,�L
2019/08/23,02:20,0.748,1.048,0.729,1.302,0.948,0.426,0.740,0.699,��,3.0,�L
2019/08/23,02:30,0.749,1.044,0.729,1.302,0.950,0.426,0.740,0.699,��,2.3,�L
2019/08/23,02:40,0.748,1.043,0.729,1.299,0.950,0.428,0.740,0.698,��쓌,1.7,�L
2019/08/23,02:50,0.749,1.044,0.729,1.301,0.951,0.428,0.740,0.698,��,2.3,�L
2019/08/23,03:00,0.748,1.044,0.729,1.303,0.950,0.428,0.742,0.697,��,2.0,�L
2019/08/23,03:10,0.748,1.046,0.728,1.303,0.949,0.427,0.739,0.699,��,2.6,�L
2019/08/23,03:20,0.746,1.044,0.731,1.301,0.948,0.428,0.739,0.698,��,2.5,�L
2019/08/23,03:30,0.747,1.043,0.729,1.301,0.948,0.427,0.740,0.698,��,2.6,�L
2019/08/23,03:40,0.747,1.044,0.730,1.303,0.949,0.428,0.739,0.698,��,2.3,�L
2019/08/23,03:50,0.748,1.045,0.728,1.303,0.950,0.429,0.740,0.700,��쐼,1.5,�L
2019/08/23,04:00,0.747,1.045,0.728,1.301,0.949,0.428,0.741,0.698,��쐼,1.4,�L
2019/08/23,04:10,0.746,1.041,0.727,1.300,0.948,0.428,0.739,0.698,��,2.2,�L
2019/08/23,04:20,0.746,1.037,0.726,1.295,0.943,0.427,0.736,0.695,��,1.5,�L
2019/08/23,04:30,0.742,1.034,0.725,1.294,0.941,0.427,0.737,0.696,��,0.8,�L
2019/08/23,04:40,0.744,1.037,0.725,1.294,0.942,0.429,0.737,0.696,��,1.7,�L
2019/08/23,04:50,0.745,1.035,0.724,1.291,0.942,0.426,0.735,0.695,��,2.0,�L
2019/08/23,05:00,0.743,1.036,0.724,1.295,0.940,0.426,0.737,0.696,��,2.3,�L
2019/08/23,05:10,0.743,1.033,0.725,1.294,0.940,0.427,0.735,0.696,��쐼,2.3,�L
2019/08/23,05:20,0.742,1.027,0.722,1.291,0.939,0.427,0.735,0.694,��,2.3,�L
2019/08/23,05:30,0.741,1.032,0.722,1.290,0.936,0.426,0.733,0.694,��쓌,1.5,�L
2019/08/23,05:40,0.741,1.026,0.721,1.290,0.934,0.425,0.734,0.693,��쐼,1.4,�L
2019/08/23,05:50,0.740,1.026,0.720,1.285,0.935,0.426,0.734,0.693,��,3.0,�L
2019/08/23,06:00,0.740,1.026,0.720,1.287,0.935,0.425,0.732,0.694,��,3.4,�L
2019/08/23,06:10,0.740,1.026,0.720,1.286,0.933,0.424,0.733,0.692,��쓌,4.0,�L
2019/08/23,06:20,0.738,1.025,0.719,1.282,0.934,0.420,0.732,0.693,��쓌,4.7,�L
2019/08/23,06:30,0.739,1.023,0.717,1.286,0.933,0.418,0.734,0.693,��쓌,7.0,�L
2019/08/23,06:40,0.738,1.023,0.717,1.283,0.934,0.419,0.733,0.693,��쓌,7.0,�L
2019/08/23,06:50,0.737,1.023,0.717,1.283,0.931,0.420,0.734,0.692,��,6.5,�L
2019/08/23,07:00,0.737,1.020,0.718,1.285,0.932,0.422,0.733,0.693,��,5.4,�L
2019/08/23,07:10,0.737,1.023,0.717,1.282,0.933,0.424,0.732,0.693,��,5.1,�L
2019/08/23,07:20,0.737,1.027,0.716,1.283,0.934,0.421,0.730,0.691,��,3.5,�L
2019/08/23,07:30,0.738,1.023,0.718,1.283,0.934,0.423,0.733,0.691,��,4.0,��
2019/08/23,07:40,0.738,1.023,0.716,1.283,0.935,0.423,0.733,0.693,��,3.9,��
2019/08/23,07:50,0.738,1.024,0.716,1.284,0.934,0.422,0.734,0.694,��쓌,3.7,��
2019/08/23,08:00,0.738,1.025,0.718,1.283,0.935,0.423,0.732,0.692,��,4.7,��
2019/08/23,08:10,0.738,1.025,0.718,1.285,0.935,0.424,0.732,0.691,��쓌,6.8,��
2019/08/23,08:20,0.736,1.025,0.716,1.281,0.934,0.422,0.734,0.693,��쓌,8.3,��
2019/08/23,08:30,0.739,1.023,0.716,1.285,0.936,0.423,0.734,0.692,��쓌,8.4,��
2019/08/23,08:40,0.738,1.028,0.717,1.283,0.936,0.424,0.736,0.691,��쓌,8.6,��
2019/08/23,08:50,0.740,1.027,0.716,1.282,0.934,0.423,0.733,0.691,��,8.3,��
2019/08/23,09:00,0.742,1.025,0.717,1.283,0.936,0.424,0.735,0.691,��쓌,11.1,��
2019/08/23,09:10,0.740,1.027,0.716,1.286,0.936,0.424,0.737,0.692,��쓌,9.3,��
2019/08/23,09:20,0.741,1.028,0.715,1.285,0.938,0.424,0.735,0.693,��,8.9,��
2019/08/23,09:30,0.743,1.029,0.716,1.285,0.939,0.424,0.736,0.693,��,7.6,��
2019/08/23,09:40,0.742,1.028,0.716,1.283,0.939,0.424,0.735,0.693,��,7.1,��
2019/08/23,09:50,0.743,1.027,0.715,1.285,0.937,0.425,0.736,0.693,��,7.1,��
2019/08/23,10:00,0.740,1.026,0.717,1.286,0.938,0.424,0.736,0.693,��,5.8,��
2019/08/23,10:10,0.739,1.028,0.718,1.286,0.942,0.426,0.735,0.693,��쓌,5.6,��
2019/08/23,10:20,0.742,1.027,0.719,1.287,0.941,0.425,0.736,0.693,��쓌,7.3,��
2019/08/23,10:30,0.742,1.027,0.720,1.286,0.941,0.425,0.735,0.694,��쓌,8.2,��
2019/08/23,10:40,0.742,1.031,0.720,1.288,0.941,0.425,0.735,0.693,��쓌,7.9,��
2019/08/23,10:50,0.743,1.032,0.721,1.288,0.942,0.425,0.735,0.693,��쓌,7.8,-
2019/08/23,11:00,0.741,1.033,0.721,1.287,0.941,0.427,0.734,0.692,��쓌,7.8,�L
2019/08/23,11:10,0.742,1.034,0.721,1.287,0.943,0.426,0.738,0.692,��쓌,8.1,��
2019/08/23,11:20,0.742,1.032,0.719,1.289,0.945,0.426,0.738,0.693,��쓌,7.1,��
2019/08/23,11:30,0.742,1.035,0.721,1.293,0.943,0.426,0.734,0.694,��쓌,5.3,��
2019/08/23,11:40,0.743,1.034,0.723,1.292,0.945,0.426,0.737,0.694,��,4.5,��
2019/08/23,11:50,0.746,1.035,0.722,1.287,0.946,0.425,0.736,0.694,��쓌,2.3,��
2019/08/23,12:00,0.745,1.037,0.722,1.289,0.946,0.427,0.737,0.694,��쓌,1.2,��
2019/08/23,12:10,0.745,1.036,0.723,1.291,0.945,0.428,0.738,0.695,��쓌,1.2,��
2019/08/23,12:20,0.747,1.036,0.720,1.293,0.944,0.428,0.737,0.696,��,1.5,��
2019/08/23,12:30,0.747,1.036,0.723,1.291,0.944,0.426,0.739,0.695,��,2.3,��
2019/08/23,12:40,0.748,1.039,0.723,1.294,0.946,0.428,0.740,0.696,��,1.5,��
2019/08/23,12:50,0.746,1.037,0.722,1.294,0.945,0.428,0.738,0.695,�k�k��,2.0,��
2019/08/23,13:00,0.747,1.037,0.723,1.292,0.946,0.428,0.739,0.697,��,3.2,��
2019/08/23,13:10,0.748,1.035,0.724,1.294,0.947,0.427,0.742,0.697,�쐼,3.5,��
2019/08/23,13:20,0.747,1.036,0.724,1.295,0.948,0.429,0.740,0.697,�쐼,4.1,��
2019/08/23,13:30,0.747,1.035,0.725,1.296,0.946,0.427,0.738,0.697,��,3.5,��
2019/08/23,13:40,0.748,1.037,0.724,1.296,0.946,0.427,0.740,0.696,��,2.9,��
2019/08/23,13:50,0.750,1.036,0.724,1.296,0.948,0.429,0.739,0.697,��,1.5,��
2019/08/23,14:00,0.750,1.036,0.725,1.295,0.948,0.426,0.741,0.696,���k��,3.3,��
2019/08/23,14:10,0.751,1.037,0.721,1.296,0.947,0.428,0.740,0.697,���k��,5.8,��
2019/08/23,14:20,0.751,1.040,0.723,1.296,0.951,0.429,0.740,0.697,��,6.0,��
2019/08/23,14:30,0.753,1.040,0.724,1.296,0.949,0.429,0.741,0.698,���k��,5.3,��
2019/08/23,14:40,0.754,1.042,0.723,1.296,0.950,0.428,0.741,0.698,���k��,4.9,��
2019/08/23,14:50,0.750,1.042,0.724,1.299,0.950,0.428,0.740,0.696,��,3.6,��
2019/08/23,15:00,0.750,1.042,0.726,1.298,0.949,0.429,0.742,0.698,���k��,2.9,�L
2019/08/23,15:10,0.750,1.042,0.727,1.298,0.949,0.428,0.741,0.697,���k��,3.4,��
2019/08/23,15:20,0.752,1.042,0.727,1.299,0.950,0.427,0.739,0.697,���k��,2.3,��
2019/08/23,15:30,0.751,1.040,0.726,1.297,0.952,0.427,0.742,0.696,���k��,4.1,��
2019/08/23,15:40,0.751,1.044,0.726,1.298,0.949,0.428,0.741,0.698,���k��,4.2,��
2019/08/23,15:50,0.752,1.043,0.725,1.298,0.948,0.427,0.742,0.698,���k��,5.8,��
2019/08/23,16:00,0.751,1.045,0.727,1.298,0.952,0.427,0.742,0.698,���k��,4.8,��
2019/08/23,16:10,0.750,1.044,0.726,1.297,0.952,0.427,0.743,0.697,���k��,5.5,��
2019/08/23,16:20,0.751,1.043,0.728,1.298,0.950,0.428,0.744,0.699,���k��,4.9,��
2019/08/23,16:30,0.751,1.041,0.728,1.300,0.950,0.426,0.742,0.698,���k��,5.0,��
2019/08/23,16:40,0.752,1.045,0.728,1.298,0.949,0.427,0.740,0.699,��,5.2,��
2019/08/23,16:50,0.751,1.043,0.728,1.300,0.949,0.426,0.741,0.699,��,4.4,��
2019/08/23,17:00,0.749,1.044,0.726,1.298,0.948,0.426,0.741,0.698,��,4.1,��
2019/08/23,17:10,0.749,1.044,0.726,1.301,0.950,0.426,0.741,0.698,��,3.4,��
2019/08/23,17:20,0.749,1.044,0.726,1.300,0.950,0.428,0.742,0.699,���k��,4.3,��
2019/08/23,17:30,0.751,1.044,0.727,1.300,0.950,0.426,0.742,0.698,���k��,4.0,��
2019/08/23,17:40,0.749,1.046,0.728,1.301,0.951,0.428,0.745,0.699,���k��,2.6,��
2019/08/23,17:50,0.751,1.047,0.729,1.302,0.952,0.427,0.742,0.699,���k��,4.1,��
2019/08/23,18:00,0.751,1.046,0.728,1.300,0.948,0.428,0.739,0.698,���k��,6.6,��
2019/08/23,18:10,0.751,1.044,0.730,1.300,0.953,0.426,0.741,0.700,�k��,5.5,��
2019/08/23,18:20,0.750,1.045,0.729,1.303,0.952,0.428,0.741,0.699,�k��,4.4,��
2019/08/23,18:30,0.752,1.047,0.730,1.301,0.951,0.428,0.742,0.699,�k��,4.6,��
2019/08/23,18:40,0.749,1.044,0.729,1.303,0.951,0.427,0.740,0.699,�k��,5.8,��
2019/08/23,18:50,0.752,1.046,0.730,1.304,0.951,0.428,0.741,0.700,�k��,4.7,��
2019/08/23,19:00,0.750,1.047,0.731,1.300,0.952,0.428,0.741,0.700,�k��,4.6,��
2019/08/23,19:10,0.752,1.046,0.728,1.305,0.950,0.426,0.741,0.699,���k��,4.0,�L
2019/08/23,19:20,0.751,1.047,0.729,1.301,0.951,0.427,0.743,0.701,���k��,5.3,�L
2019/08/23,19:30,0.752,1.049,0.730,1.305,0.953,0.427,0.742,0.699,���k��,4.7,��
2019/08/23,19:40,0.751,1.047,0.728,1.303,0.950,0.428,0.742,0.700,���k��,4.9,��
2019/08/23,19:50,0.752,1.050,0.729,1.303,0.952,0.427,0.741,0.699,��,6.6,�L
2019/08/23,20:00,0.752,1.049,0.731,1.306,0.952,0.427,0.742,0.701,��,6.3,�L
2019/08/23,20:10,0.753,1.049,0.731,1.305,0.954,0.429,0.743,0.701,��,8.2,��
2019/08/23,20:20,0.753,1.050,0.730,1.308,0.953,0.428,0.741,0.701,��,6.4,��
2019/08/23,20:30,0.752,1.048,0.733,1.307,0.953,0.427,0.741,0.701,���k��,5.0,��
2019/08/23,20:40,0.749,1.049,0.729,1.307,0.952,0.429,0.744,0.702,���k��,6.5,��
2019/08/23,20:50,0.753,1.050,0.730,1.307,0.953,0.428,0.742,0.702,���k��,6.4,��
2019/08/23,21:00,0.753,1.048,0.732,1.305,0.953,0.427,0.741,0.700,���k��,7.3,��
2019/08/23,21:10,0.751,1.049,0.732,1.306,0.953,0.427,0.741,0.701,���k��,8.3,��
2019/08/23,21:20,0.752,1.046,0.732,1.308,0.949,0.426,0.743,0.701,�k��,5.6,��
2019/08/23,21:30,0.750,1.048,0.729,1.308,0.953,0.428,0.741,0.702,���k��,5.5,��
2019/08/23,21:40,0.752,1.050,0.730,1.306,0.952,0.428,0.741,0.701,�k��,5.3,��
2019/08/23,21:50,0.751,1.048,0.729,1.306,0.951,0.427,0.743,0.702,�k��,5.1,��
2019/08/23,22:00,0.751,1.049,0.731,1.305,0.953,0.428,0.742,0.700,�k��,3.4,��
2019/08/23,22:10,0.752,1.045,0.730,1.307,0.952,0.427,0.742,0.701,�k��,3.1,��
2019/08/23,22:20,0.752,1.049,0.730,1.305,0.954,0.428,0.743,0.700,�k��,4.5,��
2019/08/23,22:30,0.752,1.049,0.732,1.306,0.952,0.428,0.742,0.701,�k�k��,3.4,��
2019/08/23,22:40,0.753,1.050,0.731,1.306,0.952,0.427,0.743,0.702,�k�k��,2.8,��
2019/08/23,22:50,0.753,1.048,0.732,1.308,0.954,0.427,0.743,0.700,�k�k��,2.5,��
2019/08/23,23:00,0.752,1.050,0.730,1.306,0.953,0.426,0.743,0.700,�k��,1.7,��
2019/08/23,23:10,0.750,1.051,0.732,1.309,0.955,0.428,0.742,0.701,�k��,1.2,��
2019/08/23,23:20,0.752,1.049,0.732,1.305,0.953,0.426,0.743,0.701,���쐼,0.6,��
2019/08/23,23:30,0.749,1.049,0.732,1.308,0.952,0.427,0.742,0.702,��쐼,0.9,��
2019/08/23,23:40,0.751,1.051,0.732,1.308,0.952,0.427,0.741,0.702,��쐼,0.6,��
2019/08/23,23:50,0.751,1.050,0.731,1.308,0.953,0.425,0.742,0.702,��쐼,0.9,��
